Theta_e
325 321 323 323 311 310 305 306 312 311 313 320 321 318 314 316 312 308 324 325 326 329 334 336 339 340 340 339 338 338 337 337 336 334 333 332 330 329 328 326 325 326 326 326 326 325 324 323 322
318 318 322 321 307 302 302 309 309 314 318 320 319 319 316 311 318 319 320 324 324 325 328 329 333 334 335 335 335 335 334 334 333 332 331 329 327 325 324 323 323 323 323 324 324 323 322 321 321
317 316 317 314 309 301 302 309 313 314 316 315 314 319 315 311 318 318 322 323 320 319 322 323 327 327 327 326 326 327 327 327 326 326 325 323 323 321 320 319 319 320 321 322 323 322 322 321 321
316 317 316 308 302 301 305 308 313 311 315 317 316 312 317 319 318 320 322 322 318 317 317 320 323 324 324 323 322 321 320 320 320 319 319 319 318 318 318 318 317 318 319 321 321 320 320 320 319
316 315 307 302 300 302 304 306 307 308 310 313 314 310 313 318 321 321 320 320 318 318 319 318 320 320 321 321 320 319 319 318 317 317 316 316 316 316 315 315 315 317 318 318 319 318 318 317 317
311 313 303 299 298 301 303 304 307 308 308 311 312 311 313 320 318 318 319 319 319 318 319 320 318 318 318 318 317 317 317 317 316 316 316 315 314 314 314 313 314 315 316 316 316 316 315 316 315
309 308 302 301 299 299 300 304 305 306 307 310 314 309 315 317 318 320 319 320 319 316 316 315 315 316 318 315 314 314 314 314 314 313 313 311 310 311 311 310 310 312 313 313 313 313 313 314 314
309 308 301 300 299 297 299 301 305 307 307 315 316 308 309 318 320 317 314 313 313 314 313 313 314 314 315 315 312 312 312 312 312 311 310 311 312 311 311 310 310 312 312 311 311 311 312 312 311
307 303 299 297 298 297 299 301 307 310 309 310 312 314 315 317 317 315 313 314 314 312 310 310 310 311 312 312 312 315 314 312 314 314 313 313 312 312 310 311 309 310 310 310 311 311 310 309 309
305 302 297 297 298 297 297 299 300 302 305 306 309 314 314 312 313 312 311 310 309 307 307 306 307 307 309 310 312 312 312 313 313 312 311 311 311 310 310 310 310 310 310 310 311 311 310 309 307
300 297 296 296 298 297 296 297 298 300 299 303 305 309 311 311 311 309 308 306 305 305 305 303 303 304 305 307 309 310 310 311 310 308 304 306 307 308 307 308 308 309 309 308 309 309 308 309 308
295 296 297 296 296 296 295 297 297 299 302 307 309 310 309 308 307 305 305 304 303 302 301 300 300 301 302 303 304 304 303 305 303 301 299 300 301 300 298 299 300 302 304 304 305 306 308 308 308
295 295 296 296 296 295 296 295 296 297 303 308 309 307 307 306 304 303 302 301 300 298 298 297 296 297 298 299 299 299 298 298 299 298 297 297 297 295 295 296 297 297 299 298 298 299 300 301 304
297 297 295 296 295 295 293 294 293 297 304 306 305 306 305 304 302 301 299 297 296 295 295 295 294 295 295 296 297 297 297 297 298 296 295 295 294 293 293 294 294 295 295 295 296 296 297 298 299
298 294 296 295 295 294 295 293 292 298 301 303 304 304 303 301 299 297 296 294 294 294 293 293 292 294 293 294 295 295 295 296 295 295 294 294 293 292 292 292 293 293 292 293 294 294 295 295 296
296 297 293 295 295 295 294 293 299 298 297 300 303 302 301 299 297 295 293 293 292 292 290 292 292 292 292 293 293 294 294 294 294 294 293 293 292 292 291 291 292 292 292 292 292 292 292 292 293
297 295 293 294 294 293 293 293 297 297 298 298 302 302 301 299 296 294 293 292 291 290 289 290 291 291 291 292 293 293 293 293 293 293 292 291 291 291 290 290 291 291 290 290 290 290 290 289 290
290 290 290 289 291 290 290 290 295 297 296 298 300 302 301 298 296 295 292 291 290 290 290 290 290 290 291 292 292 292 292 291 292 291 291 290 290 290 289 289 289 289 289 289 289 288 289 288 288
291 289 288 292 289 287 290 291 293 296 296 293 296 299 299 298 299 294 292 291 290 290 289 289 289 289 289 289 288 288 288 289 290 290 291 290 290 289 288 288 288 288 287 286 287 287 286 286 288
289 288 290 290 288 288 289 288 293 291 293 296 294 297 298 298 297 293 292 291 290 290 289 289 288 288 288 288 288 288 288 288 289 289 289 289 289 289 287 287 286 286 286 285 285 285 284 285 286
288 286 286 284 287 289 287 292 293 290 290 291 293 296 298 298 297 294 292 291 291 289 289 288 288 288 288 288 288 288 288 288 287 287 287 288 288 288 287 286 286 286 285 284 284 284 283 282 284
285 287 285 284 284 286 287 287 293 291 290 289 291 293 295 297 297 296 294 291 290 290 289 288 288 288 288 288 286 285 284 283 285 286 287 287 287 287 287 286 286 285 285 284 284 284 284 283 281
287 287 285 285 283 283 286 284 293 290 290 290 291 292 293 294 295 294 293 292 291 290 288 288 288 288 288 287 286 285 284 284 284 285 284 285 286 286 286 286 285 284 284 284 284 283 283 283 282
288 285 285 285 286 286 279 282 288 293 291 291 291 291 291 293 293 293 293 291 289 289 288 288 288 287 287 286 285 284 283 282 282 282 282 283 284 284 284 284 284 284 283 283 283 283 282 282 282
288 288 287 287 286 287 277 280 287 292 293 291 290 290 290 291 291 291 290 289 288 288 288 288 287 286 285 284 284 283 282 282 281 281 281 280 281 282 282 283 283 282 282 282 282 281 281 281 280
284 284 286 279 282 283 275 281 289 290 289 289 289 289 289 289 290 290 290 289 288 287 287 287 286 283 283 283 282 282 282 281 281 280 280 280 280 281 282 282 282 282 282 281 281 280 280 280 280
284 287 283 284 272 277 285 288 292 289 288 288 288 288 289 289 290 289 289 287 286 286 286 283 282 282 282 281 281 280 280 280 279 279 280 280 280 280 280 280 279 280 280 280 280 279 279 279 279
284 284 286 286 280 280 285 285 286 291 289 287 288 288 288 288 286 287 286 284 284 284 282 282 282 280 280 280 279 279 279 279 279 279 278 278 278 278 278 278 278 278 278 278 278 278 278 277 277
283 284 282 282 281 280 279 285 290 289 286 287 287 286 284 283 282 283 282 282 281 281 281 280 280 279 278 278 278 277 277 277 278 277 277 277 277 277 276 276 276 276 275 276 277 277 277 276 276
284 284 284 282 283 280 277 280 288 285 285 285 286 286 284 281 279 279 280 280 279 279 278 278 278 277 277 277 276 276 276 276 275 275 275 275 275 275 274 274 273 273 273 274 274 275 275 274 273
Wind_Speed
17 11 6 5 5 2 6 4 1 4 4 8 6 8 12 11 6 4 4 11 14 13 15 18 20 21 21 20 17 16 15 14 11 11 11 12 12 11 11 11 11 11 11 11 11 11 11 11 11
10 10 5 3 5 7 5 3 7 9 7 5 7 4 10 6 6 4 5 12 11 12 12 16 18 21 21 20 19 17 16 14 13 13 13 13 12 12 12 11 11 11 11 10 10 11 10 10 10
9 6 5 3 5 8 8 5 9 7 4 1 5 12 6 4 4 3 7 9 9 10 11 14 18 19 18 18 17 16 16 15 15 15 14 13 13 12 12 12 12 11 12 12 12 12 11 11 11
5 5 4 8 8 7 10 7 5 7 6 4 9 10 7 6 2 4 6 5 6 9 9 15 18 18 18 17 16 15 14 14 13 13 12 12 12 12 11 12 12 13 12 13 12 13 12 12 11
4 4 3 6 7 7 6 5 2 2 5 5 2 7 6 4 6 7 6 5 7 10 10 10 15 15 16 15 15 15 14 14 13 13 13 13 12 12 12 12 13 13 13 13 13 13 13 13 13
3 4 7 6 7 7 6 4 4 5 4 5 8 7 5 4 6 4 4 5 7 7 7 8 8 9 12 14 14 13 13 13 13 13 13 12 11 12 12 12 11 13 13 13 13 14 14 13 13
1 4 4 11 9 6 5 2 2 3 3 6 3 3 6 8 6 5 6 6 7 7 8 9 9 10 5 9 12 12 12 11 11 11 11 10 7 8 9 9 9 11 12 12 13 13 13 13 13
1 2 7 2 8 5 4 2 4 7 5 2 5 4 6 8 7 6 4 4 4 8 9 10 10 10 10 9 10 7 9 10 10 9 11 10 9 5 8 7 11 12 12 12 12 12 13 14 14
3 3 5 4 3 6 4 2 4 2 4 3 3 4 4 7 6 5 4 3 6 7 10 10 11 11 11 9 7 5 4 3 6 9 9 9 8 9 12 8 9 12 12 13 13 12 13 13 15
4 2 3 6 6 5 4 2 2 4 5 4 6 7 6 4 3 3 3 5 7 9 9 10 10 10 10 8 9 8 7 6 7 9 11 8 10 8 9 9 8 10 9 13 12 14 13 13 8
6 4 5 6 6 3 2 2 2 6 6 2 3 6 3 4 2 1 2 4 5 7 7 10 10 10 11 8 7 5 5 6 6 10 11 10 8 9 8 7 7 8 9 8 11 11 8 10 9
6 7 6 3 3 0 2 1 3 6 4 3 1 4 5 5 2 1 1 4 7 7 8 9 10 9 9 7 6 6 6 6 6 8 11 8 6 8 9 7 9 8 8 11 10 7 11 12 12
9 4 5 3 3 2 3 5 8 8 5 5 3 5 6 4 3 2 2 4 5 6 8 9 9 9 8 8 7 6 7 6 7 7 9 9 8 8 9 8 8 8 9 10 10 10 10 11 13
5 8 5 4 3 3 5 5 3 7 8 10 8 8 4 4 2 1 2 3 4 4 6 8 8 9 8 7 8 6 7 7 7 6 8 11 9 9 9 10 9 9 9 10 10 10 10 10 11
6 4 2 3 4 2 4 9 15 7 8 10 10 8 6 3 2 1 1 1 3 4 5 6 6 7 8 8 7 5 5 6 6 6 9 10 10 10 11 9 9 9 10 13 10 11 10 10 11
1 2 3 4 3 2 4 11 5 8 10 13 11 10 9 8 6 4 3 1 0 1 3 4 5 6 7 6 6 5 5 6 6 6 6 9 11 11 11 9 9 9 9 10 10 10 9 10 11
1 3 4 3 4 5 5 14 8 6 10 14 13 12 11 11 10 7 5 3 2 2 3 4 5 6 8 7 6 6 6 6 6 7 7 10 11 11 11 10 9 11 9 9 9 9 11 11 11
7 5 4 6 4 6 15 24 22 14 12 14 14 13 13 13 13 8 6 4 3 3 4 4 4 6 8 6 7 7 6 7 7 7 7 11 9 12 11 10 12 11 9 10 9 13 10 11 11
5 7 10 7 4 9 11 22 21 16 17 14 15 14 14 13 10 8 8 5 5 5 5 4 5 7 7 7 7 7 8 9 8 8 9 12 11 13 13 10 11 12 11 13 14 12 13 10 11
5 7 7 8 1 9 14 26 19 3 10 12 14 14 13 12 12 11 10 10 8 6 5 5 5 6 6 5 7 7 8 9 9 9 10 12 12 12 12 13 12 13 11 14 13 12 11 10 10
1 3 6 8 13 3 14 11 5 4 3 4 9 11 12 14 13 13 12 11 8 8 6 5 5 5 6 7 7 8 9 9 9 10 9 9 12 13 13 14 12 12 12 10 13 13 15 11 10
4 4 7 10 8 5 5 7 8 3 3 5 8 11 11 12 10 11 11 11 10 9 4 5 5 6 7 9 9 11 10 11 10 10 9 11 12 14 13 13 13 13 10 13 11 12 12 13 12
4 7 7 5 4 6 2 3 6 2 3 3 4 8 10 10 10 11 12 10 9 5 5 5 6 7 8 9 10 10 12 10 10 10 15 12 12 12 14 14 13 12 10 12 14 14 13 11 12
9 5 4 2 2 3 3 5 9 2 1 1 1 1 4 4 8 10 8 7 5 5 6 6 7 9 10 10 11 13 15 15 12 13 12 10 9 10 12 14 13 13 13 13 12 14 16 14 14
6 3 4 3 2 4 2 6 13 7 4 3 4 4 4 3 7 8 8 8 7 7 6 7 8 11 12 13 13 14 15 16 16 16 11 15 10 10 13 16 13 12 14 15 14 14 15 15 14
4 2 2 6 6 9 4 8 5 2 1 2 4 3 3 4 3 6 6 5 6 6 7 8 9 11 13 14 15 14 15 10 11 13 13 11 12 12 16 14 15 17 17 15 15 12 12 14 13
3 2 4 3 2 2 4 6 13 4 3 2 0 2 3 4 6 7 7 4 6 7 8 9 11 12 13 14 14 15 15 16 14 17 15 11 15 13 16 16 17 17 18 17 16 12 14 13 14
2 3 1 1 7 9 5 5 9 2 3 3 3 2 3 8 10 9 6 7 6 6 7 10 11 13 14 15 14 13 15 16 16 15 17 17 16 17 17 17 17 18 18 19 17 14 14 14 12
3 2 1 2 2 5 9 5 4 5 2 3 3 2 4 6 8 7 6 5 6 7 9 11 11 14 14 14 15 15 15 16 16 15 16 17 18 17 17 18 18 19 18 20 18 16 16 16 16
2 3 4 3 2 4 4 13 3 3 3 2 4 2 6 6 5 5 4 6 8 9 10 11 13 13 14 14 15 16 17 18 17 17 18 18 18 18 19 19 19 19 19 20 19 18 15 16 17
Wind_Direction
303 311 291 256 238 165 181 116 4 130 110 63 68 60 88 36 11 46 43 7 353 6 26 36 39 47 51 53 56 56 54 53 57 57 50 49 46 34 32 26 20 11 6 8 9 9 10 8 2
308 308 241 256 245 174 118 141 96 60 93 104 70 109 53 69 25 69 30 2 10 17 26 35 39 43 41 44 45 44 45 42 42 40 36 36 34 29 22 18 11 4 359 358 2 3 3 360 359
284 275 263 259 288 79 120 88 111 87 92 75 108 51 49 29 78 47 17 20 24 35 36 31 40 45 43 42 42 40 38 35 33 31 28 24 22 21 15 11 4 359 357 353 354 353 352 351 350
298 200 200 249 91 36 100 98 82 110 99 44 97 86 108 47 41 37 31 30 45 41 36 34 37 39 38 37 34 34 34 30 28 26 21 17 13 9 8 2 358 352 350 348 348 347 344 344 342
236 248 134 100 90 107 82 70 71 109 81 56 243 118 80 68 72 62 61 43 37 48 46 52 38 36 36 35 31 27 28 27 24 21 17 13 10 8 4 359 353 348 345 343 341 341 338 338 336
210 279 149 154 122 116 89 61 61 78 111 70 96 107 85 90 90 79 86 80 68 63 51 35 52 38 39 32 26 23 22 21 19 18 14 9 7 7 4 357 351 346 342 340 337 335 333 332 331
352 305 66 130 132 133 97 20 39 65 136 62 3 135 106 112 107 114 78 74 70 42 39 23 14 3 46 64 24 19 18 19 19 17 10 1 356 358 358 351 349 340 338 335 331 328 325 324 322
6 84 146 132 169 106 89 92 4 357 85 121 338 158 160 114 149 104 104 90 53 39 27 17 9 5 360 354 51 2 11 12 11 7 3 331 296 360 1 338 353 335 334 328 322 319 317 314 308
300 160 149 122 156 102 119 191 62 2 110 59 25 51 76 114 132 181 197 98 39 30 30 16 8 4 355 353 8 333 37 310 357 358 358 327 347 343 341 349 328 325 324 321 316 314 310 303 289
9 150 84 36 45 80 75 305 77 225 169 134 130 122 134 134 174 242 330 358 19 17 17 14 6 2 353 357 353 358 3 1 10 10 354 349 341 351 320 316 283 286 291 306 307 307 303 278 302
17 52 113 64 37 29 59 175 221 243 229 214 212 168 180 213 216 311 4 37 22 15 17 14 5 4 4 355 349 1 5 356 359 12 2 351 346 353 347 336 342 335 332 333 327 320 315 317 303
100 49 39 34 16 310 223 337 250 272 24 69 248 179 201 220 207 10 348 8 13 14 15 16 11 8 9 355 2 2 5 359 7 10 10 355 353 355 346 341 340 337 335 332 330 319 314 303 300
73 97 63 83 80 21 325 265 291 242 201 197 178 206 213 211 179 106 41 36 12 13 10 12 15 8 6 9 -0 3 2 4 357 8 9 359 354 350 338 334 330 330 332 330 322 315 312 309 302
115 104 96 71 54 28 302 261 290 199 188 201 200 212 213 226 239 177 25 15 12 10 13 6 12 7 360 2 355 356 357 353 354 1 1 359 354 346 340 332 330 327 334 322 312 310 305 305 301
124 97 143 67 7 340 312 250 235 222 202 218 210 215 213 207 225 239 218 265 349 19 10 5 359 4 358 355 350 349 0 341 347 352 350 356 348 341 334 326 321 326 326 314 311 308 309 303 301
151 240 270 118 336 130 301 286 217 171 210 230 214 210 213 212 221 204 205 195 354 331 334 358 355 354 349 345 336 334 348 336 341 337 341 347 338 339 331 324 318 324 315 312 311 311 308 304 301
157 305 305 134 45 317 247 292 89 193 225 238 224 216 217 218 223 212 200 204 220 289 330 340 334 345 343 340 334 327 330 335 329 330 332 340 330 331 324 316 312 318 308 306 307 309 307 304 301
4 339 332 311 31 301 274 267 275 238 232 246 249 226 219 225 226 215 213 215 229 258 281 308 331 345 339 338 338 334 321 337 323 328 320 323 322 327 324 316 313 317 310 306 308 305 303 301 297
335 326 315 303 43 319 282 288 288 279 256 236 250 239 229 231 228 212 218 219 232 240 266 299 325 343 347 344 339 335 330 323 315 318 312 324 321 325 319 314 315 312 308 307 304 303 305 301 305
331 310 327 295 138 326 307 294 289 333 275 257 241 244 235 233 220 216 223 220 226 249 255 274 304 331 336 336 328 316 314 313 311 308 321 319 318 316 311 311 308 307 305 303 301 304 303 298 301
14 327 342 306 320 257 299 277 194 172 268 268 254 251 238 230 229 224 222 230 231 239 252 277 305 315 318 329 319 320 314 310 313 320 312 314 312 307 304 305 304 303 301 298 300 298 296 296 300
306 30 324 303 326 300 1 290 294 153 275 218 234 235 243 240 232 241 231 229 232 239 237 261 294 307 317 328 321 321 312 311 317 308 308 308 303 303 302 299 301 303 303 300 299 297 303 296 291
325 331 310 315 269 315 141 276 285 192 171 193 219 232 240 239 238 230 239 246 242 247 259 284 302 314 321 321 319 316 311 311 312 306 307 308 300 306 304 300 298 295 296 295 294 293 293 292 288
315 303 268 257 242 269 72 354 284 249 66 136 147 312 328 268 249 245 245 246 238 241 251 278 308 315 321 322 317 316 317 315 313 309 309 306 308 305 300 300 299 298 295 294 298 299 293 289 285
301 311 329 325 289 279 124 272 258 292 296 292 332 1 6 323 242 246 243 239 242 258 273 301 317 319 326 325 325 324 318 316 312 316 312 313 307 304 301 303 302 297 295 294 292 291 291 293 290
342 334 351 308 306 314 156 234 258 76 21 283 269 296 330 309 280 264 276 298 296 318 315 319 330 326 330 330 327 322 321 317 316 313 313 307 305 304 309 304 305 300 297 295 291 289 289 287 288
10 347 14 288 90 275 242 265 266 47 317 279 311 339 360 8 354 341 343 336 351 339 348 340 334 336 333 330 326 325 325 321 316 315 309 306 308 306 306 308 306 306 303 296 294 289 286 287 291
310 10 309 128 317 305 235 266 258 290 264 18 25 347 13 6 9 359 22 24 356 2 347 347 344 336 333 332 331 326 322 320 315 311 311 312 313 312 308 311 309 303 302 300 292 289 285 286 285
169 204 187 291 258 276 304 270 179 202 154 143 268 270 32 13 7 27 28 18 11 2 356 347 341 338 336 335 330 325 322 319 319 317 318 319 315 313 317 310 309 306 308 305 296 293 288 288 292
266 258 223 246 198 251 296 272 41 129 128 147 299 330 0 24 37 33 35 18 7 3 352 343 346 340 339 333 331 326 325 326 323 321 323 321 320 319 320 318 314 311 306 303 306 296 298 297 294